TimeEDT,TemperatureF,Dew PointF,Humidity,Sea Level PressureIn,VisibilityMPH,Wind Direction,Wind SpeedMPH,Gust SpeedMPH,PrecipitationIn,Events,Conditions,WindDirDegrees,DateUTC
12:00 AM,-9999,-9999,N/A,-9999,-9999.0,North,-9999.0,-,N/A,,Unknown,0,2013-04-28 04:00:00
12:54 AM,50.0,37.0,61,30.29,-9999.0,Calm,Calm,-,N/A,,Unknown,0,2013-04-28 04:54:00
1:54 AM,46.9,39.0,74,30.28,-9999.0,Calm,Calm,-,N/A,,Unknown,0,2013-04-28 05:54:00
2:54 AM,45.0,36.0,71,30.27,-9999.0,Calm,Calm,-,N/A,,Unknown,0,2013-04-28 06:54:00
3:54 AM,43.0,37.0,80,30.27,-9999.0,Calm,Calm,-,N/A,,Unknown,0,2013-04-28 07:54:00
4:54 AM,42.1,36.0,79,30.27,-9999.0,Calm,Calm,-,N/A,,Unknown,0,2013-04-28 08:54:00
5:54 AM,39.9,37.0,89,30.28,-9999.0,Calm,Calm,-,N/A,,Unknown,0,2013-04-28 09:54:00
6:54 AM,42.1,37.9,85,30.28,-9999.0,Calm,Calm,-,N/A,,Unknown,0,2013-04-28 10:54:00
7:54 AM,48.9,39.9,71,30.30,-9999.0,Calm,Calm,-,N/A,,Unknown,0,2013-04-28 11:54:00
8:54 AM,57.0,37.0,47,30.30,-9999.0,Calm,Calm,-,N/A,,Unknown,0,2013-04-28 12:54:00
9:54 AM,61.0,35.1,38,30.29,-9999.0,SSW,5.8,-,N/A,,Unknown,210,2013-04-28 13:54:00
10:54 AM,64.0,37.0,37,30.28,-9999.0,Variable,5.8,-,N/A,,Unknown,0,2013-04-28 14:54:00
11:54 AM,68.0,37.9,33,30.26,-9999.0,Variable,3.5,-,N/A,,Unknown,0,2013-04-28 15:54:00
12:54 PM,68.0,34.0,28,30.24,-9999.0,Variable,3.5,-,N/A,,Unknown,0,2013-04-28 16:54:00
1:54 PM,70.0,36.0,29,30.22,-9999.0,SSW,6.9,-,N/A,,Unknown,210,2013-04-28 17:54:00
2:54 PM,70.0,37.0,30,30.21,-9999.0,Variable,6.9,-,N/A,,Unknown,0,2013-04-28 18:54:00
3:54 PM,68.0,37.0,32,30.20,-9999.0,SW,9.2,-,N/A,,Unknown,220,2013-04-28 19:54:00
4:54 PM,68.0,36.0,31,30.19,-9999.0,SSW,8.1,-,N/A,,Unknown,210,2013-04-28 20:54:00
5:54 PM,66.9,37.0,33,30.18,-9999.0,SSW,5.8,-,N/A,,Unknown,200,2013-04-28 21:54:00
6:54 PM,66.0,36.0,33,30.16,-9999.0,Variable,5.8,-,N/A,,Unknown,0,2013-04-28 22:54:00
7:54 PM,63.0,33.1,33,30.18,-9999.0,Variable,5.8,-,N/A,,Unknown,0,2013-04-28 23:54:00
8:54 PM,61.0,30.9,32,30.18,-9999.0,Variable,5.8,-,N/A,,Unknown,0,2013-04-29 00:54:00
9:54 PM,59.0,30.9,35,30.20,-9999.0,Variable,4.6,-,N/A,,Unknown,0,2013-04-29 01:54:00
10:54 PM,57.9,28.9,33,30.22,-9999.0,Calm,Calm,-,N/A,,Unknown,0,2013-04-29 02:54:00
11:54 PM,57.0,35.1,44,30.22,-9999.0,Calm,Calm,-,N/A,,Unknown,0,2013-04-29 03:54:00